Location: Astronight Observatory
(42.6003°N, 71.2981°W)
Time: 15:21:03
(UTC-05:00)

Daily predictions for brighter satellites

Satellite Brightness Start Highest point End
(mag) Time Altitude Azimuth Time Altitude Azimuth Time Altitude Azimuth
Meteor 2-2 Rocket 4.3 17:08:33 10° N 17:14:13 88° W 17:19:52 10° S
Lacrosse 5 3.8 17:11:24 10° NW 17:14:47 18° NNW 17:18:12 10° NNE
Cosmos 1844 4.3 17:12:21 10° NNW 17:18:05 66° WSW 17:23:49 10° SSE
Cosmos 2279 Rocket 4.3 17:13:10 10° N 17:19:07 45° ENE 17:25:02 10° SSE
Cosmos 2228 Rocket 3.9 17:17:41 10° NNW 17:22:02 57° W 17:26:23 10° S
Meteor 1-27 4.4 17:22:51 10° N 17:28:36 56° ENE 17:34:19 10° SSE
Cosmos 2237 Rocket 2.2 17:23:36 10° SSW 17:29:13 80° ESE 17:34:53 10° NNE
CZ-2C R/B 3.1 17:24:54 10° S 17:29:47 59° W 17:34:33 10° NNW
Cosmos 1743 Rocket 4.4 17:25:37 10° SSW 17:29:59 55° W 17:34:25 10° N
CENTAUR R/B 3.7 17:25:01 10° WSW 17:30:51 40° NW 17:37:26 10° NNE
Cosmos 2369 Rocket 4.1 17:31:49 10° NE 17:31:55 10° NE 17:32:00 10° NE
Cosmos 1151 Rocket 3.0 17:29:20 10° N 17:33:38 90° WSW 17:37:56 10° S
Transit 2A Rocket 4.4 17:30:12 10° NNW 17:34:33 82° ENE 17:38:52 10° SSE
Cosmos 1300 2.7 17:31:17 10° N 17:35:08 90° W 17:38:58 10° S
SL-16 R/B 2.7 17:31:45 10° S 17:36:58 40° ESE 17:42:12 10° NE
COSMOS 2428 4.3 17:31:55 10° WSW 17:37:02 33° NW 17:42:10 10° N
Cosmos 1125 Rocket 4.0 17:34:25 10° NNW 17:39:35 66° WSW 17:44:43 10° S
Lacrosse 4 Rocket 2.8 17:37:36 10° N 17:40:24 18° NE 17:42:02 15° ENE
COSMOS 2441 4.5 17:36:09 10° S 17:41:01 82° WSW 17:45:52 10° NNW
Cosmos 44 3.7 17:35:57 10° SW 17:41:11 69° NW 17:46:12 10° NNE
SL-14 R/B 3.3 17:40:14 10° S 17:44:10 83° W 17:48:11 10° N
Cosmos 1340 Rocket 2.8 17:41:37 10° S 17:45:29 58° E 17:49:21 10° NNE
Cosmos 2180 Rocket 4.5 17:39:53 10° N 17:45:59 60° E 17:52:07 10° SSE
Cosmos 1484 Rocket 2.8 17:42:47 10° SSE 17:46:44 88° W 17:50:45 10° NNW
ALOS 3.5 17:43:45 10° ESE 17:47:04 20° ENE 17:50:24 10° NNE
Cosmos 2297 3.7 17:42:44 10° NNW 17:48:26 62° ENE 17:54:05 10° SE
Cosmos 1805 Rocket 3.8 17:44:15 10° SSE 17:48:31 47° E 17:52:49 10° NNE
SKYMED 2 3.5 17:44:38 10° NNE 17:48:59 69° ESE 17:53:18 10° S
Meteor 2-10 4.0 17:46:03 10° N 17:51:12 85° E 17:56:28 10° S
Thor Agena Rocket 4.1 17:47:10 10° N 17:52:20 60° WNW 17:57:24 10° SSW
Cosmos 1184 Rocket 4.0 17:50:52 10° SSE 17:53:36 24° E 17:54:19 22° ENE
Iridium 4 Rocket 4.2 17:53:30 10° SE 17:56:56 22° E 17:58:22 19° NE
Cosmos 2058 3.0 17:54:23 10° SSW 17:58:28 78° W 18:02:35 10° N
Meteor 1-28 Rocket 3.1 17:56:09 10° NNE 17:59:51 62° E 18:03:32 10° S
Cosmos 1869 4.3 17:56:42 10° NNE 18:00:04 25° ENE 18:03:25 10° SE
Cosmos 1538 Rocket 4.2 17:56:12 10° S 18:01:18 52° ESE 18:06:30 10° NNE
Cosmos 1461 2.8 17:57:35 10° SSW 18:01:46 70° ESE 18:04:38 19° NE
Sich 1 3.4 17:59:36 10° SSE 18:03:49 44° E 18:08:02 10° NNE
FENGYUN 3A 4.2 18:04:33 10° SE 18:09:19 34° ENE 18:14:07 10° N
METEOR-M 4.1 18:06:46 10° SSE 18:12:03 66° ENE 18:17:22 10° N
Cosmos 1633 Rocket 3.2 18:08:25 10° SSE 18:12:40 48° E 18:16:41 11° NNE
Aureole 1 Rocket 4.1 18:12:12 10° S 18:17:22 48° E 18:24:05 10° NNE
Abrixas 3.1 18:16:07 10° W 18:18:56 42° NNW 18:19:25 38° N
Cosmos 1356 Rocket 3.1 18:15:23 10° S 18:19:21 76° E 18:23:01 12° NNE
ATLAS 5 CENTAUR R/B 4.0 18:20:08 10° N 18:23:29 15° NNE 18:23:47 15° NNE
NOAA 12 4.0 18:19:16 10° SSE 18:24:31 90° WSW 18:29:49 10° NNW
Lacrosse 5 rocket 3.3 18:22:33 10° WNW 18:25:48 27° SW 18:29:12 10° S
FREGAT/IRIS 2.4 18:24:18 10° SSE 18:27:21 80° ENE 18:30:25 10° N
H-2A ROCKET BODY 4.3 18:03:13 10° WSW 18:27:52 37° SSW 18:33:03 15° SE
Aureole 2 Rocket 4.5 18:24:52 10° SW 18:28:19 31° WNW 18:31:59 10° N
BREEZE-M DEB (TANK) 2.2 18:30:52 10° WSW 18:33:03 64° NW 18:33:03 64° NW
Cosmos 1626 2.6 18:31:01 10° SSW 18:34:43 62° W 18:38:10 12° N
Cosmos 1707 Rocket 4.1 18:32:26 10° NNW 18:36:42 59° W 18:40:57 10° S
COSMO-SKYMED 1 4.1 18:32:57 10° N 18:36:55 36° WNW 18:40:53 10° SW
Cosmos 2219 Rocket 4.4 18:32:54 10° W 18:37:04 21° NW 18:41:16 10° N
FengYun 1-2 T 4.1 18:32:49 10° SSE 18:38:18 64° ENE 18:43:45 10° N
Cosmos 773 Rocket 3.8 18:34:12 10° SSW 18:39:20 76° ESE 18:42:09 28° NNE
Cosmos 2333 Rocket 4.2 18:35:10 10° WSW 18:39:44 25° NW 18:44:20 10° N
BREEZE M DEB (TANK) 3.0 18:39:14 10° WNW 18:40:58 30° WSW 18:40:58 30° WSW
Cosmos 1603 3.8 18:36:12 10° S 18:41:35 49° ESE 18:42:36 44° ENE
Cosmos 1943 Rocket 4.2 18:38:32 10° N 18:39:28 12° NNE 18:39:28 12° NNE
USA 215 3.2 18:37:35 21° SE 18:42:14 85° NE 18:48:50 10° NW
ATLAS 3B R/B 4.5 18:39:25 10° NNW 18:42:58 14° NNE 18:44:15 13° NNE
Cosmos 1666 Rocket 4.2 18:43:36 10° SSW 18:47:51 55° W 18:52:11 10° N
Orbus 7S? 4.4 18:44:14 10° NW 18:48:33 72° NE 18:53:53 25° SE
CZ-4C R/B 4.2 18:45:51 10° NNW 18:50:36 19° NNE 18:50:36 19° NNE
Resurs 01 Rocket 1.5 18:49:20 43° SSE 18:50:43 74° ENE 18:55:10 10° N
Cosmos 1455 3.1 18:47:23 10° NNW 18:51:03 47° W 18:54:44 10° SSW
SJ-6B 3.8 18:49:47 10° S 18:53:44 49° W 18:57:47 10° NNW
Cosmos 1933 Rocket 4.4 18:54:57 10° S 18:57:42 37° S 18:57:42 37° S
Cosmos 1627 Rocket 4.4 18:53:20 10° S 18:59:24 62° E 19:02:02 34° NNE
Lacrosse 5 3.8 18:56:09 10° NNW 18:59:06 17° N 18:59:06 17° N
Cosmos 2369 Rocket 3.2 19:11:49 10° NNW 19:15:08 33° N 19:15:08 33° N
Lacrosse 4 Rocket 2.6 19:15:28 10° NW 19:18:28 39° WNW 19:18:28 39° WNW
SL-16 R/B 3.7 19:16:08 10° WSW 19:21:09 32° NW 19:24:59 16° N
ALOS 3.2 19:19:41 10° S 19:24:09 46° W 19:28:40 10° NNW
Spot 2 Rocket 4.1 19:21:15 10° S 19:26:10 53° W 19:31:07 10° NNW
USA 229 DEB 3.9 19:20:58 10° SW 19:27:48 69° NW 19:29:44 49° NNE
USA 229 3.8 19:21:03 10° SW 19:27:53 70° NW 19:29:47 49° NNE
Cosmos 2026 Rocket 3.8 19:22:24 10° S 19:28:37 87° W 19:29:03 78° N
ATLAS 5 CENTAUR R/B 4.3 20:03:41 10° NNW 20:05:21 20° NNW 20:05:21 20° NNW
